When you browse on this site, cookies collect data to enhance your experience and personalize the content and advertising you see.
Visit our Privacy Policy to learn more. By continuing to use the site, you agree to this use of cookies and data.
EN

Hourly Weather Dubovets'

Today, 4 August, Tuesday

Time Temperature Precipitation Wind Pressure Humidity
00:00 +15°C° 0 mm 4 mps 740 mmHg 78%
01:00 +15°C° 0 mm 4 mps 740 mmHg 77%
02:00 +15°C° 0 mm 4 mps 740 mmHg 74%
03:00 +14°C° 0 mm 4 mps 739 mmHg 75%
04:00 +14°C° 0 mm 4 mps 739 mmHg 75%
05:00 +14°C° 0 mm 4 mps 739 mmHg 75%
06:00 +17°C° 0 mm 4 mps 739 mmHg 72%
07:00 +17°C° 0 mm 5 mps 740 mmHg 68%
08:00 +20°C° 0 mm 5 mps 740 mmHg 64%
09:00 +22°C° 0 mm 5 mps 740 mmHg 59%
10:00 +23°C° 0 mm 6 mps 740 mmHg 54%
11:00 +26°C° 0 mm 6 mps 740 mmHg 50%
12:00 +26°C° 0 mm 6 mps 740 mmHg 49%
13:00 +26°C° 0 mm 6 mps 740 mmHg 48%
14:00 +27°C° 0 mm 6 mps 740 mmHg 47%
15:00 +26°C° 0 mm 5 mps 740 mmHg 50%
16:00 +26°C° 0 mm 4 mps 740 mmHg 54%
17:00 +26°C° 0 mm 4 mps 739 mmHg 57%
18:00 +24°C° 0 mm 3 mps 739 mmHg 61%
19:00 +22°C° 0 mm 3 mps 739 mmHg 65%
20:00 +20°C° 0 mm 3 mps 739 mmHg 69%
21:00 +19°C° 0 mm 3 mps 739 mmHg 68%
22:00 +19°C° 0 mm 3 mps 739 mmHg 68%
23:00 +18°C° 0 mm 3 mps 740 mmHg 68%

Tomorrow, 5 August, Wednesday

Time Temperature Precipitation Wind Pressure Humidity
00:00 +18°C° 0 mm 3 mps 740 mmHg 68%
01:00 +17°C° 0 mm 3 mps 740 mmHg 68%
02:00 +17°C° 0 mm 3 mps 740 mmHg 68%
03:00 +17°C° 0 mm 2 mps 740 mmHg 69%
04:00 +16°C° 0 mm 2 mps 740 mmHg 70%
05:00 +16°C° 0 mm 2 mps 740 mmHg 72%
06:00 +18°C° 0 mm 2 mps 741 mmHg 68%
07:00 +20°C° 0 mm 2 mps 741 mmHg 65%
08:00 +23°C° 0 mm 2 mps 741 mmHg 61%
09:00 +24°C° 0 mm 3 mps 742 mmHg 57%
10:00 +26°C° 0 mm 3 mps 742 mmHg 52%
11:00 +28°C° 0 mm 3 mps 742 mmHg 47%
12:00 +28°C° 0 mm 3 mps 742 mmHg 46%
13:00 +29°C° 0 mm 3 mps 742 mmHg 45%
14:00 +29°C° 0 mm 3 mps 742 mmHg 44%
15:00 +29°C° 0 mm 2 mps 742 mmHg 45%
16:00 +29°C° 0 mm 2 mps 742 mmHg 46%
17:00 +29°C° 0 mm 1 mps 742 mmHg 47%
18:00 +27°C° 0 mm 1 mps 742 mmHg 51%
19:00 +25°C° 0 mm 1 mps 743 mmHg 56%
20:00 +23°C° 0 mm 1 mps 743 mmHg 61%
21:00 +22°C° 0 mm 1 mps 743 mmHg 62%
22:00 +21°C° 0 mm 1 mps 743 mmHg 64%
23:00 +21°C° 0 mm 1 mps 744 mmHg 66%

Day after tomorrow, 6 August, Thursday

Time Temperature Precipitation Wind Pressure Humidity
00:00 +20°C° 0 mm 1 mps 744 mmHg 68%
01:00 +20°C° 0 mm 1 mps 744 mmHg 69%
02:00 +19°C° 0 mm 1 mps 744 mmHg 71%
03:00 +19°C° 0 mm 1 mps 744 mmHg 72%
04:00 +19°C° 0 mm 1 mps 744 mmHg 73%
05:00 +18°C° 0 mm 1 mps 744 mmHg 75%
06:00 +20°C° 0 mm 1 mps 745 mmHg 71%
07:00 +22°C° 0 mm 1 mps 745 mmHg 67%
08:00 +24°C° 0 mm 1 mps 745 mmHg 63%
09:00 +25°C° 0 mm 1 mps 746 mmHg 59%
10:00 +27°C° 0 mm 1 mps 746 mmHg 55%
11:00 +28°C° 0 mm 2 mps 746 mmHg 51%
12:00 +29°C° 0 mm 2 mps 746 mmHg 49%
13:00 +29°C° 0 mm 2 mps 746 mmHg 47%
14:00 +30°C° 0 mm 3 mps 746 mmHg 45%
15:00 +29°C° 0 mm 3 mps 746 mmHg 48%
16:00 +29°C° 0 mm 2 mps 746 mmHg 51%
17:00 +29°C° 0 mm 2 mps 746 mmHg 53%
18:00 +27°C° 0 mm 2 mps 746 mmHg 57%
19:00 +25°C° 0 mm 2 mps 746 mmHg 61%
20:00 +23°C° 0 mm 1 mps 746 mmHg 65%
21:00 +22°C° 0 mm 1 mps 746 mmHg 67%
22:00 +21°C° 0 mm 1 mps 746 mmHg 69%
23:00 +21°C° 0 mm 1 mps 746 mmHg 70%

7 August, Friday

Time Temperature Precipitation Wind Pressure Humidity
00:00 +20°C° 0 mm 1 mps 746 mmHg 72%
01:00 +20°C° 0 mm 1 mps 746 mmHg 73%
02:00 +20°C° 0 mm 1 mps 746 mmHg 75%
03:00 +19°C° 0 mm 1 mps 746 mmHg 76%
04:00 +19°C° 0 mm 1 mps 746 mmHg 76%
05:00 +19°C° 0 mm 1 mps 747 mmHg 77%
06:00 +20°C° 0 mm 2 mps 747 mmHg 74%
07:00 +21°C° 0 mm 2 mps 747 mmHg 72%
08:00 +24°C° 0 mm 2 mps 747 mmHg 69%
09:00 +25°C° 0.1 mm 2 mps 747 mmHg 66%
10:00 +27°C° 0.1 mm 3 mps 747 mmHg 63%
11:00 +28°C° 0.1 mm 3 mps 747 mmHg 60%
12:00 +28°C° 0.6 mm 3 mps 747 mmHg 62%
13:00 +28°C° 0.6 mm 4 mps 747 mmHg 63%
14:00 +28°C° 0.6 mm 4 mps 746 mmHg 64%
15:00 +28°C° 0.7 mm 4 mps 746 mmHg 64%
16:00 +28°C° 0.7 mm 4 mps 746 mmHg 65%
17:00 +27°C° 0.7 mm 4 mps 746 mmHg 65%
18:00 +25°C° 0 mm 4 mps 746 mmHg 67%
19:00 +22°C° 0 mm 4 mps 746 mmHg 70%
20:00 +21°C° 0 mm 4 mps 746 mmHg 72%
21:00 +20°C° 0 mm 3 mps 746 mmHg 76%
22:00 +19°C° 0 mm 3 mps 746 mmHg 80%
23:00 +19°C° 0 mm 3 mps 746 mmHg 84%

8 August, Saturday

Time Temperature Precipitation Wind Pressure Humidity
00:00 +18°C° 0 mm 3 mps 746 mmHg 86%
01:00 +17°C° 0 mm 3 mps 746 mmHg 88%
02:00 +17°C° 0 mm 3 mps 746 mmHg 90%
03:00 +16°C° 0 mm 3 mps 746 mmHg 91%
04:00 +16°C° 0 mm 3 mps 746 mmHg 92%
05:00 +16°C° 0 mm 3 mps 746 mmHg 94%
06:00 +17°C° 0 mm 3 mps 746 mmHg 89%
07:00 +19°C° 0 mm 3 mps 746 mmHg 84%
08:00 +20°C° 0 mm 3 mps 746 mmHg 79%
09:00 +21°C° 0 mm 3 mps 746 mmHg 73%
10:00 +23°C° 0 mm 4 mps 746 mmHg 67%
11:00 +25°C° 0 mm 4 mps 746 mmHg 61%
12:00 +26°C° 0.1 mm 4 mps 745 mmHg 60%
13:00 +26°C° 0.1 mm 4 mps 745 mmHg 58%
14:00 +26°C° 0.1 mm 4 mps 744 mmHg 56%
15:00 +26°C° 0.1 mm 4 mps 744 mmHg 59%
16:00 +26°C° 0.1 mm 3 mps 744 mmHg 62%
17:00 +25°C° 0.1 mm 3 mps 743 mmHg 65%
18:00 +24°C° 0 mm 3 mps 743 mmHg 69%
19:00 +21°C° 0 mm 2 mps 743 mmHg 74%
20:00 +20°C° 0 mm 2 mps 743 mmHg 78%
21:00 +19°C° 0 mm 2 mps 743 mmHg 80%
22:00 +18°C° 0 mm 2 mps 743 mmHg 82%
23:00 +18°C° 0 mm 2 mps 743 mmHg 83%

9 August, Sunday

Time Temperature Precipitation Wind Pressure Humidity
00:00 +17°C° 0 mm 2 mps 743 mmHg 85%
01:00 +17°C° 0 mm 2 mps 743 mmHg 86%
02:00 +16°C° 0 mm 2 mps 743 mmHg 87%
03:00 +16°C° 0 mm 2 mps 743 mmHg 88%
04:00 +15°C° 0 mm 2 mps 742 mmHg 89%
05:00 +15°C° 0 mm 2 mps 742 mmHg 90%
06:00 +16°C° 0 mm 2 mps 742 mmHg 84%
07:00 +18°C° 0 mm 2 mps 742 mmHg 79%
08:00 +20°C° 0 mm 2 mps 743 mmHg 73%
09:00 +21°C° 0 mm 2 mps 743 mmHg 67%
10:00 +22°C° 0 mm 3 mps 743 mmHg 61%
11:00 +24°C° 0 mm 3 mps 743 mmHg 55%
12:00 +25°C° 0 mm 3 mps 742 mmHg 52%
13:00 +25°C° 0 mm 3 mps 742 mmHg 49%
14:00 +26°C° 0 mm 3 mps 742 mmHg 46%
15:00 +26°C° 0 mm 3 mps 742 mmHg 47%
16:00 +26°C° 0 mm 3 mps 741 mmHg 49%
17:00 +25°C° 0 mm 2 mps 741 mmHg 50%
18:00 +23°C° 0 mm 2 mps 741 mmHg 55%
19:00 +21°C° 0 mm 1 mps 741 mmHg 60%
20:00 +19°C° 0 mm 1 mps 741 mmHg 65%
21:00 +19°C° 0 mm 1 mps 741 mmHg 67%
22:00 +16°C° 0 mm 0 mps 741 mmHg 69%
23:00 +15°C° 0 mm 0 mps 741 mmHg 71%
Show more